This is the latest recevied weather packets stored in our database for station/object KMASWX. If no packets are shown the sender has not sent any weather packets the latest 10 day(s).
| Time | Temp. | Humidity | Pressure | Rain* | Wind** | Luminosity | Snow |
|---|---|---|---|---|---|---|---|
| 1777494914 | 21.11° C | 31% | - | 0 mm | - | - | - |
| 1777494610 | 20.56° C | 35% | - | 0 mm | - | - | - |
| 1777493999 | 19.44° C | 34% | - | 0 mm | - | - | - |
| 1777493389 | 19.44° C | 38% | - | 0 mm | - | - | - |
| 1777493086 | 19.44° C | 37% | - | 0 mm | - | - | - |
| 1777492781 | 19.44° C | 38% | - | 0 mm | - | - | - |
| 1777492477 | 19.44° C | 37% | - | 0 mm | - | - | - |
| 1777492173 | 19.44° C | 38% | - | 0 mm | - | - | - |
| 1777491261 | 20° C | 38% | - | 0 mm | - | - | - |
| 1777490954 | 20° C | 37% | - | 0 mm | - | - | - |
| 1777490650 | 20° C | 38% | - | 0 mm | - | - | - |
| 1777490344 | 19.44° C | 43% | - | 0 mm | - | - | - |
| 1777490040 | 18.33° C | 43% | - | 0 mm | - | - | - |
| 1777489736 | 17.78° C | 44% | - | 0 mm | - | - | - |
| 1777489432 | 17.78° C | 44% | - | 0 mm | - | - | - |
| 1777488822 | 17.22° C | 46% | - | 0 mm | - | - | - |
| 1777488519 | 17.78° C | 45% | - | 0 mm | - | - | - |
| 1777488214 | 18.33° C | 44% | - | 0 mm | - | - | - |
| 1777487911 | 17.22° C | 46% | - | 0 mm | - | - | - |
| 1777487303 | 15.56° C | 51% | - | 0 mm | - | - | - |
| 1777486999 | 15.56° C | 52% | - | 0 mm | - | - | - |
| 1777486692 | 15° C | 52% | - | 0 mm | - | - | - |
| 1777486389 | 14.44° C | 53% | - | 0 mm | - | - | - |
| 1777485779 | 14.44° C | 54% | - | 0 mm | - | - | - |
| 1777485475 | 14.44° C | 53% | - | 0 mm | - | - | - |
* Rain latest 24 hours (hover to see other rain measurements)
** Current wind speed in m/s (hover to see current wind gust speed)